Cuero, Texas, United States (77954)
Lat: 29.09N, Lon: 97.29W
Wx Zone: TXZ224
Local Info
Past Weather Observations for Today

NOTE: This archive is for the closest National Weather Service station to Cuero. Information may differ from the station used for current weather conditions.

Click here for Long-term Archive

Time Weather Temperature Dewpoint Humidity Pressure Winds Precip Visibility
15:51
Partly Cloudy
86°F / 30°C 73°F / 23°C 66% 29.95 in
(1014 mb)
S 17.3 mph
(S 28 kph)
- 10SM
14:51
Mostly Cloudy
88°F / 31°C 73°F / 23°C 62% 29.95 in
(1014 mb)
S 16.1 mph
(S 26 kph)
- 10SM
13:51
Partly Cloudy
88°F / 31°C 73°F / 23°C 62% 29.95 in
(1014 mb)
S 17.3 mph
(S 28 kph)
- 10SM
13:00
Partly Cloudy
90°F / 32°C 73°F / 23°C 59% 29.95 in
(1014 mb)
SSE 17.3 mph
(SSE 28 kph)
- 10SM
12:51
Mostly Cloudy
88°F / 31°C 73°F / 23°C 62% 29.95 in
(1014 mb)
SSE 17.3 mph
(SSE 28 kph)
- 10SM
11:51
Mostly Cloudy
86°F / 30°C 73°F / 23°C 66% 29.98 in
(1015 mb)
SSE 17.3 mph
(SSE 28 kph)
- 10SM
10:51
Mostly Cloudy
88°F / 31°C 73°F / 23°C 62% 29.98 in
(1015 mb)
SSE 19.6 mph
(SSE 32 kph)
- 10SM
09:51
Mostly Cloudy
84°F / 29°C 73°F / 23°C 70% 29.98 in
(1015 mb)
S 16.1 mph
(S 26 kph)
- 10SM
08:51
Partly Cloudy
82°F / 28°C 73°F / 23°C 74% 29.95 in
(1014 mb)
SSE 19.6 mph
(SSE 32 kph)
- 10SM
07:51
Clear
81°F / 27°C 73°F / 23°C 79% 29.95 in
(1014 mb)
SSE 12.7 mph
(SSE 20 kph)
- 10SM
06:51
Clear
77°F / 25°C 73°F / 23°C 89% 29.92 in
(1013 mb)
SSE 8.1 mph
(SSE 13 kph)
- 10SM
05:51
Partly Cloudy
Fog And Mist
75°F / 24°C 73°F / 23°C 94% 29.89 in
(1012 mb)
SSE 8.1 mph
(SSE 13 kph)
- 6SM
05:48
Partly Cloudy
Fog And Mist
75°F / 24°C 73°F / 23°C 94% 29.86 in
(1011 mb)
SSE 8.1 mph
(SSE 13 kph)
- 6SM
05:36
Mostly Cloudy
Fog And Mist
75°F / 24°C 73°F / 23°C 94% 29.86 in
(1011 mb)
SSE 8.1 mph
(SSE 13 kph)
- 6SM
04:51
Overcast
Fog And Mist
75°F / 24°C 73°F / 23°C 94% 29.86 in
(1011 mb)
SE 8.1 mph
(SE 13 kph)
- 6SM
03:51
Overcast
72°F / 22°C 70°F / 21°C 94% 29.86 in
(1011 mb)
ENE 6.9 mph
(ENE 11 kph)
- 8SM
03:27
Overcast
72°F / 22°C 70°F / 21°C 94% 29.86 in
(1011 mb)
ENE 5.8 mph
(ENE 9 kph)
- 9SM
03:08
Mostly Cloudy
72°F / 22°C 70°F / 21°C 94% 29.83 in
(1010 mb)
NE 5.8 mph
(NE 9 kph)
- 8SM
03:01
Mostly Cloudy
70°F / 21°C 70°F / 21°C 100% 29.83 in
(1010 mb)
NE 4.6 mph
(NE 7 kph)
- 8SM
02:51
Partly Cloudy
70°F / 21°C 70°F / 21°C 100% 29.83 in
(1010 mb)
ENE 4.6 mph
(ENE 7 kph)
- 9SM
01:51
Clear
72°F / 22°C 70°F / 21°C 94% 29.83 in
(1010 mb)
E 4.6 mph
(E 7 kph)
- 10SM
00:51
Clear
70°F / 21°C 68°F / 20°C 94% 29.86 in
(1011 mb)
ESE 5.8 mph
(ESE 9 kph)
- 10SM
Time Weather Temperature Dewpoint Humidity Pressure Winds Precip Visibility


Weather for websites

WeatherForYou.com, LLC is not responsible for any damages or problems caused by this service. Current weather conditions are obtained from the closest station including government and personal stations which may have varying degrees of accuracy. Weather forecasts are derived from the NOAA NDFD. Like all things, this site belongs to Jesus Christ... He just trusts us to maintain it. If you have any questions or comments email webmaster@weatherforyou.com

Copyright © 2016, WeatherForYou.com LLC. All rights reserved.